[[{"header":{"parameterUnit":"m.s-1","parameterCategory":1,"la1":30.2991,"la2":30.254,"lo1":-89.0895,"lo2":-89.0444,"dy":0.0017,"dx":0.0017,"nx":28,"ny":28,"refTime":"2024-06-20T09:00:00:Z","depth":0,"parameterNumber":2,"parameterNumberName":"U-component_of_WINDS"},"data":[0,0,0,0,0,0,0,0,0,0,0,0,0,0,0,0,0,0,0,0,0,0,0,0,0,0,0,0,0,0,0,0,0,0,0,0,0,0,0,0,0,0,0,0,0,0,0,0,0,0,0,0,0,0,0,0,0,0,-5.1049,-5.1051,0,-5.1234,-5.1236,-5.1239,-5.1156,-5.1152,-5.1147,-5.1143,-5.134,-5.1349,-5.1359,0,0,0,0,0,0,0,0,0,0,0,0,0,-5.0629,-5.0637,-5.1048,-5.1051,-5.1053,-5.1234,-5.1236,-5.1239,-5.1157,-5.1152,-5.1146,-5.1141,-5.1337,-5.1348,-5.136,0,0,0,0,0,0,0,0,0,0,0,0,0,-5.0813,-5.064,-5.1048,-5.1034,-5.1034,-5.1233,-5.1237,-5.124,-5.1158,-5.1151,-5.1145,-5.1138,-5.1333,-5.1347,-5.1361,-5.1587,0,0,-5.1405,-5.1411,0,0,0,0,0,0,0,0,-5.0803,-5.0829,-5.1034,-5.1035,-5.1036,-5.1165,-5.1161,-5.1357,-5.116,-5.1112,-5.1143,-5.1135,-5.1288,-5.1305,-5.1356,-5.1597,-5.1605,-5.1406,-5.1415,-5.1421,-5.1425,0,0,0,0,0,0,0,-5.079,-5.082,-5.1122,-5.1037,-5.1038,-5.102,-5.1039,-5.1198,-5.1236,-5.1115,-5.111,-5.1132,-5.1287,-5.1342,-5.136,-5.1608,-5.1406,-5.1419,-5.1427,-5.1433,-5.2046,-5.2053,0,0,0,0,0,0,-5.0777,-5.081,-5.1116,-5.1128,-5.09,-5.1034,-5.1054,-5.1131,-5.1234,-5.1243,-5.1138,-5.1128,-5.1321,-5.1343,-5.1366,-5.1639,-5.1421,-5.1434,-5.1443,-5.2038,-5.2047,-5.2056,0,0,0,0,0,0,-5.0768,-5.0805,-5.1109,-5.0967,-5.1005,-5.1048,-5.1135,-5.1138,-5.1192,-5.1251,-5.1259,-5.1187,-5.1317,-5.1346,-5.1533,-5.1644,-5.1441,-5.1454,-5.2029,-5.2041,-5.2051,-5.2185,0,0,0,0,0,0,-5.0756,-5.0802,-5.0887,-5.097,-5.1013,-5.127,-5.1141,-5.1147,-5.1217,-5.1205,-5.1299,-5.1308,-5.1313,-5.1512,-5.1547,-5.166,-5.1465,-5.2019,-5.2034,-5.2048,-5.2171,-5.2199,-5.2224,0,0,0,0,0,-5.0742,-5.0918,-5.0891,-5.0929,-5.1119,-5.1277,-5.1301,-5.1302,-5.1226,-5.1312,-5.1351,-5.1305,-5.1626,-5.1532,-5.1571,-5.169,-5.2012,-5.203,-5.2047,-5.2159,-5.2194,-5.2223,0,0,0,0,0,0,-5.0849,-5.0929,-5.09,-5.1108,-5.1186,-5.1262,-5.1371,-5.1339,-5.1442,-5.1427,-5.1426,-5.1448,-5.1641,-5.1684,-5.1577,-5.1915,-5.1808,-5.1834,-5.188,-5.1914,-5.194,-5.1926,-5.1477,0,0,0,0,0,-5.0896,-5.1016,-5.108,-5.1257,-5.1298,-5.1328,-5.1397,-5.1391,-5.1473,-5.1506,-5.1557,-5.1641,-5.176,-5.1839,-5.1953,-5.2176,-5.2197,-5.2278,-5.2305,-5.2326,-5.2349,-5.2472,-5.2509,-5.2112,-5.2112,-5.2112,0,0,-5.0996,-5.1055,-5.113,-5.128,-5.134,-5.1466,-5.1357,-5.1494,-5.1588,-5.1527,-5.1706,-5.1748,-5.184,-5.2047,-5.214,-5.2089,-5.2463,-5.2348,-5.2365,-5.2376,-5.2494,-5.2531,-5.2565,-5.2124,-5.2122,-5.212,0,0,-5.1243,-5.1298,-5.1453,-5.1515,-5.1606,-5.1625,-5.1662,-5.1744,-5.1769,-5.1948,-5.1905,-5.2018,-5.2224,-5.2292,-5.2354,-5.2628,-5.259,-5.2665,-5.2805,-5.2925,-5.2956,-5.2984,-5.3083,-5.3118,-5.2687,-5.2688,-5.2688,0,-5.1356,-5.1542,-5.1537,-5.1678,-5.1746,-5.1695,-5.1853,-5.1914,-5.2039,-5.2088,-5.2027,-5.2285,-5.2344,-5.2566,-5.2633,-5.2684,-5.2729,-5.2654,-5.2952,-5.298,-5.3005,-5.31,-5.3137,-5.2696,-5.2695,-5.2694,-5.2693,0,-5.1677,-5.1807,-5.1921,-5.2041,-5.2122,-5.2271,-5.2291,-5.2374,-5.2361,-5.2388,-5.2572,-5.2641,-5.2768,-5.282,-5.281,-5.3042,-5.3007,-5.295,-5.2842,-5.3052,-5.3141,-5.3177,-5.2708,-5.2705,-5.2703,-5.2701,0,0,-5.1996,-5.2111,-5.2153,-5.2207,-5.2305,-5.2406,-5.2554,-5.2676,-5.2748,-5.2837,-5.2962,-5.3138,-5.3085,-5.3155,-5.3152,-5.3258,-5.3472,-5.3187,-5.319,-5.3239,-5.3734,-5.3777,-5.3819,-5.3447,-5.3454,-5.346,-5.3726,0,-5.225,-5.2506,-5.2507,-5.2745,-5.2865,-5.2819,-5.2948,-5.3023,-5.3053,-5.3161,-5.3194,-5.3319,-5.324,-5.3282,-5.3384,-5.3424,-5.3571,-5.3405,-5.3566,-5.3572,-5.3545,-5.3865,-5.3911,-5.4159,-5.3761,-5.3767,-5.3771,0,-5.2581,-5.2678,-5.2927,-5.3008,-5.3059,-5.3174,-5.3287,-5.3391,-5.3476,-5.349,-5.3569,-5.355,-5.3703,-5.3591,-5.3803,-5.369,-5.3756,-5.3786,-5.3796,-5.3811,-5.3684,-5.389,-5.4238,-5.4276,-5.3826,-5.3821,-5.3817,0,-5.279,-5.2983,-5.3157,-5.3205,-5.3303,-5.3386,-5.3431,-5.3509,-5.3583,-5.3683,-5.3731,-5.3848,-5.3912,-5.4004,-5.4019,-5.3935,-5.4233,-5.4121,-5.4251,-5.4251,-5.4316,-5.4311,-5.468,-5.4358,-5.4357,-5.4356,-5.4356,0,-5.3074,-5.3229,-5.3252,-5.336,-5.3532,-5.3532,-5.3704,-5.3743,-5.3813,-5.3929,-5.3897,-5.4006,-5.4018,-5.4133,-5.4145,-5.432,-5.435,-5.4367,-5.4368,-5.437,-5.4368,-5.4414,-5.4397,-5.4366,-5.4364,-5.4362,-5.436,0,-5.3336,-5.3358,-5.3545,-5.3622,-5.3646,-5.377,-5.3837,-5.3941,-5.3967,-5.4114,-5.4149,-5.419,-5.4323,-5.4346,-5.4504,-5.4512,-5.4722,-5.4705,-5.4692,-5.469,-5.4819,-5.4807,-5.523,-5.5286,-5.4927,-5.493,-5.4933,0,-5.3516,-5.3634,-5.3724,-5.3798,-5.3847,-5.3967,-5.4042,-5.4047,-5.4127,-5.4234,-5.4326,-5.4454,-5.4558,-5.4773,-5.4819,-5.494,-5.4927,-5.5067,-5.4945,-5.4943,-5.493,-5.4923,-5.4935,-5.5091,-5.5094,-5.5098,-5.51,0,-5.3834,-5.3839,-5.3946,-5.406,-5.4149,-5.4239,-5.4323,-5.4387,-5.4404,-5.4496,-5.463,-5.471,-5.487,-5.4999,-5.512,-5.5169,-5.5139,-5.5138,-5.5175,-5.5178,-5.5165,-5.5175,-5.4757,-5.5129,-5.5126,-5.5124,-5.5122,-5.5121,-5.4061,-5.4163,-5.4243,-5.4365,-5.4429,-5.4509,-5.461,-5.4648,-5.476,-5.4889,-5.4886,-5.5034,-5.5119,-5.5276,-5.5334,-5.5451,-5.5406,-5.5459,-5.5473,-5.5486,-5.5498,-5.5146,-5.5473,-5.5472,-5.5472,-5.5471,-5.547,0,-5.4377,-5.4426,-5.4538,-5.4657,-5.4753,-5.4714,-5.4806,-5.489,-5.502,-5.51,-5.5202,-5.5358,-5.5484,-5.554,-5.5664,-5.5748,-5.5737,-5.578,-5.5774,-5.5787,-5.5531,-5.5487,-5.5787,-5.5787,-5.5787,-5.5786,-5.5786,-5.5786,-5.4553,-5.4725,-5.474,-5.4944,-5.4993,-5.5135,-5.5192,-5.5266,-5.533,-5.5504,-5.5608,-5.5643,-5.5714,-5.5844,-5.5958,-5.5971,-5.6019,-5.6069,-5.6077,-5.5837,-5.5804,-5.5774,-5.5733,-5.6079,-5.608,-5.6323,-5.6325,-5.6327]},{"header":{"parameterUnit":"m.s-1","parameterCategory":1,"la1":30.2991,"la2":30.254,"lo1":-89.0895,"lo2":-89.0444,"dy":0.0017,"dx":0.0017,"nx":28,"ny":28,"refTime":"2024-06-20T09:00:00:Z","depth":0,"parameterNumber":3,"parameterNumberName":"V-component_of_WINDS"},"data":[0,0,0,0,0,0,0,0,0,0,0,0,0,0,0,0,0,0,0,0,0,0,0,0,0,0,0,0,0,0,0,0,0,0,0,0,0,0,0,0,0,0,0,0,0,0,0,0,0,0,0,0,0,0,0,0,0,0,-1.7217,-1.7217,0,-1.7133,-1.7132,-1.7131,-1.7074,-1.7073,-1.7073,-1.7073,-1.6983,-1.6981,-1.6979,0,0,0,0,0,0,0,0,0,0,0,0,0,-1.7326,-1.7324,-1.7218,-1.7216,-1.7215,-1.7133,-1.7132,-1.713,-1.7074,-1.7073,-1.7073,-1.7072,-1.6984,-1.6981,-1.6979,0,0,0,0,0,0,0,0,0,0,0,0,0,-1.7264,-1.7324,-1.7218,-1.7177,-1.7173,-1.7133,-1.7132,-1.713,-1.7074,-1.7073,-1.7073,-1.7072,-1.6984,-1.6981,-1.6978,-1.6971,0,0,-1.6969,-1.6968,0,0,0,0,0,0,0,0,-1.7267,-1.726,-1.7184,-1.718,-1.7175,-1.7113,-1.7137,-1.7077,-1.7074,-1.7111,-1.7073,-1.7072,-1.7027,-1.702,-1.7005,-1.6967,-1.6963,-1.6969,-1.6967,-1.6966,-1.6965,0,0,0,0,0,0,0,-1.7272,-1.7263,-1.7184,-1.7183,-1.7177,-1.7162,-1.7152,-1.7125,-1.7073,-1.7108,-1.7104,-1.7095,-1.7024,-1.7008,-1.7003,-1.6962,-1.6969,-1.6966,-1.6964,-1.6963,-1.6911,-1.6912,0,0,0,0,0,0,-1.7283,-1.7267,-1.7186,-1.7181,-1.7221,-1.716,-1.715,-1.7134,-1.7073,-1.7064,-1.7095,-1.7092,-1.7014,-1.7006,-1.6999,-1.6986,-1.6966,-1.6963,-1.6961,-1.6911,-1.6911,-1.6912,0,0,0,0,0,0,-1.7286,-1.7276,-1.719,-1.7223,-1.7211,-1.7159,-1.7141,-1.7132,-1.7117,-1.7064,-1.7054,-1.7089,-1.7013,-1.7004,-1.6978,-1.6982,-1.6962,-1.6959,-1.691,-1.6911,-1.6912,-1.6959,0,0,0,0,0,0,-1.7289,-1.7278,-1.7276,-1.7223,-1.7209,-1.7172,-1.7142,-1.7131,-1.7112,-1.7107,-1.7055,-1.7046,-1.7012,-1.6983,-1.6975,-1.6977,-1.6956,-1.691,-1.6911,-1.6911,-1.6957,-1.6962,-1.6965,0,0,0,0,0,-1.7293,-1.7292,-1.7276,-1.7266,-1.7206,-1.7172,-1.7164,-1.7125,-1.7113,-1.7109,-1.7075,-1.7048,-1.6983,-1.6981,-1.6972,-1.6973,-1.6909,-1.691,-1.6911,-1.6955,-1.6961,-1.6965,0,0,0,0,0,0,-1.7346,-1.7285,-1.7266,-1.7248,-1.7216,-1.7163,-1.7157,-1.7132,-1.7102,-1.7099,-1.7051,-1.704,-1.7019,-1.6993,-1.6993,-1.6962,-1.6943,-1.6942,-1.6979,-1.6984,-1.6988,-1.6994,-1.6954,0,0,0,0,0,-1.7355,-1.7334,-1.7282,-1.7271,-1.7256,-1.721,-1.7194,-1.7167,-1.7131,-1.7116,-1.708,-1.7045,-1.7017,-1.6999,-1.697,-1.6953,-1.694,-1.6949,-1.6953,-1.6957,-1.6956,-1.6943,-1.6946,-1.6915,-1.6915,-1.6915,0,0,-1.7375,-1.7339,-1.7329,-1.7281,-1.7253,-1.723,-1.7199,-1.7177,-1.7159,-1.7113,-1.7087,-1.7059,-1.7016,-1.6995,-1.6984,-1.6973,-1.6962,-1.6958,-1.6961,-1.6959,-1.6945,-1.6948,-1.695,-1.6916,-1.6916,-1.6916,0,0,-1.7399,-1.7371,-1.7358,-1.733,-1.7288,-1.7256,-1.7254,-1.7204,-1.7183,-1.7157,-1.7121,-1.7098,-1.7051,-1.7022,-1.7001,-1.7012,-1.6985,-1.7004,-1.7024,-1.7012,-1.7015,-1.7017,-1.7019,-1.7021,-1.7004,-1.7004,-1.7004,0,-1.7428,-1.7395,-1.7354,-1.7334,-1.7313,-1.7271,-1.7256,-1.7231,-1.7181,-1.7167,-1.7156,-1.7094,-1.7063,-1.7033,-1.7035,-1.702,-1.7014,-1.7009,-1.7018,-1.7019,-1.702,-1.7022,-1.7023,-1.7006,-1.7006,-1.7006,-1.7005,0,-1.7432,-1.7409,-1.7404,-1.7357,-1.7335,-1.7319,-1.7274,-1.7257,-1.7231,-1.7201,-1.7173,-1.7134,-1.7095,-1.7086,-1.7061,-1.7052,-1.7046,-1.7027,-1.7007,-1.7027,-1.7027,-1.7028,-1.7009,-1.7009,-1.7008,-1.7007,0,0,-1.7487,-1.7418,-1.7416,-1.7394,-1.7343,-1.7324,-1.7304,-1.7267,-1.7252,-1.7219,-1.72,-1.716,-1.7141,-1.7117,-1.7088,-1.7078,-1.7087,-1.7059,-1.7057,-1.7065,-1.7072,-1.7086,-1.7088,-1.7069,-1.7069,-1.7069,-1.7075,0,-1.7503,-1.7466,-1.7429,-1.7405,-1.7382,-1.734,-1.7322,-1.7288,-1.7259,-1.7234,-1.7201,-1.7173,-1.7151,-1.7136,-1.7124,-1.7089,-1.7088,-1.7088,-1.7049,-1.7048,-1.706,-1.7089,-1.7104,-1.7112,-1.7076,-1.7076,-1.7076,0,-1.7516,-1.7485,-1.7459,-1.7409,-1.7398,-1.7383,-1.7345,-1.7322,-1.7282,-1.7261,-1.7234,-1.7203,-1.7178,-1.7161,-1.7125,-1.7125,-1.7107,-1.7087,-1.7086,-1.7081,-1.7063,-1.7082,-1.7114,-1.7114,-1.7076,-1.7076,-1.7076,0,-1.7558,-1.7509,-1.7487,-1.7469,-1.741,-1.74,-1.7375,-1.7335,-1.7314,-1.728,-1.7266,-1.723,-1.7209,-1.7181,-1.714,-1.7132,-1.7108,-1.7088,-1.7088,-1.7089,-1.7084,-1.7085,-1.7112,-1.7075,-1.7075,-1.7075,-1.7075,0,-1.7579,-1.7564,-1.7504,-1.7491,-1.7472,-1.7428,-1.741,-1.7381,-1.7345,-1.7324,-1.7285,-1.7265,-1.7213,-1.7187,-1.7154,-1.7128,-1.712,-1.7101,-1.7092,-1.7104,-1.7106,-1.7091,-1.7089,-1.7075,-1.7075,-1.7075,-1.7075,0,-1.7622,-1.7581,-1.7554,-1.75,-1.7487,-1.7475,-1.7428,-1.7412,-1.7381,-1.7354,-1.7345,-1.7294,-1.7261,-1.7217,-1.717,-1.7148,-1.7125,-1.7113,-1.7139,-1.7134,-1.7136,-1.7136,-1.7153,-1.7153,-1.7118,-1.7118,-1.7118,0,-1.7637,-1.7625,-1.757,-1.7553,-1.7529,-1.7503,-1.7482,-1.7437,-1.7416,-1.7369,-1.7358,-1.7322,-1.729,-1.7238,-1.7197,-1.716,-1.7145,-1.7154,-1.7139,-1.7151,-1.7143,-1.7144,-1.7142,-1.7157,-1.7158,-1.7158,-1.7159,0,-1.7668,-1.7649,-1.762,-1.7584,-1.756,-1.7529,-1.7497,-1.7485,-1.7433,-1.7411,-1.7377,-1.7353,-1.7304,-1.7268,-1.7226,-1.7198,-1.7169,-1.7163,-1.7161,-1.7172,-1.7188,-1.7178,-1.7148,-1.7163,-1.7163,-1.7162,-1.7162,-1.7162,-1.7697,-1.7683,-1.7642,-1.7611,-1.7582,-1.7552,-1.7534,-1.75,-1.7471,-1.7429,-1.7404,-1.737,-1.7327,-1.7267,-1.7241,-1.7212,-1.7201,-1.7199,-1.7198,-1.7198,-1.7201,-1.7193,-1.7205,-1.7204,-1.7204,-1.7204,-1.7204,0,-1.7725,-1.7696,-1.7668,-1.7624,-1.7599,-1.7575,-1.7537,-1.7517,-1.7489,-1.7452,-1.7422,-1.7381,-1.7346,-1.7301,-1.7261,-1.7247,-1.7233,-1.7238,-1.7238,-1.7232,-1.7213,-1.7219,-1.725,-1.725,-1.725,-1.725,-1.725,-1.725,-1.7737,-1.7712,-1.7687,-1.7647,-1.7618,-1.7585,-1.7565,-1.7537,-1.7507,-1.7464,-1.7434,-1.7406,-1.7365,-1.7322,-1.7288,-1.7275,-1.7262,-1.7271,-1.7254,-1.7238,-1.7234,-1.723,-1.7234,-1.7269,-1.7269,-1.7275,-1.7275,-1.7275]}]]